Regional Weather Roundup
Issued by NWS

Home | Current Version | Previous Version | Graphics & Text | Print | Product List | Glossary On
Versions: 1 2 3 4 5 6 7 8 9 10 11 12 13 14 15 16 17 18 19 20 21 22 23 24 25 26 27 28 29 30 31 32 33 34 35 36 37 38 39 40 41 42 43 44 45 46 47 48 49 50
000
ASUS43 KLSX 250459
RWRMO

WEATHER SUMMARY FOR MISSOURI
NATIONAL WEATHER SERVICE SPRINGFIELD MO
1200 AM CDT THU MAY 25 2017

NOTE: "FAIR" INDICATES FEW OR NO CLOUDS BELOW 12,000 FEET WITH NO
       SIGNIFICANT WEATHER AND/OR OBSTRUCTIONS TO VISIBILITY.
       CURRENT SKY AND/OR WEATHER CONDITIONS ARE NOT AVAILABLE FOR
       CHILLICOTHE AND FARMINGTON.

MOZ001>031-035>038-043-044-053-054-250600-
...NORTHERN AND WESTERN MISSOURI...

CITY           SKY/WX    TMP DP  RH WIND       PRES   REMARKS
KANSAS CTY INT CLEAR     56  47  71 E3        29.70S
KANSAS C DTWN  CLEAR     55  50  83 CALM      29.70S
LEE`S SUMMIT   CLEAR     54  50  86 CALM      29.71R
ST JOSEPH      CLEAR     50  50 100 CALM      29.71S
CHILLICOTHE      N/A     51  50  96 CALM      29.71R
KIRKSVILLE     FOG       47  47 100 NW3       29.69S VSB 1/4

$$
MOZ066>068-077>081-088>096-101>105-250600-
...SOUTHWEST MISSOURI...

CITY           SKY/WX    TMP DP  RH WIND       PRES   REMARKS
SPRINGFIELD    CLEAR     50  48  93 CALM      29.71S
JOPLIN         CLEAR     51  49  92 S3        29.72S

$$
MOZ032>034-039>042-045>050-055>058-069>072-250600-
...CENTRAL MISSOURI...

CITY           SKY/WX    TMP DP  RH WIND       PRES   REMARKS
COLUMBIA       CLEAR     52  49  89 NW6       29.68S
JEFFERSON CITY CLEAR     56  49  77 NW3       29.68S
ROLLA          CLEAR     51  48  89 W8        29.67R
SEDALIA        CLEAR     55  53  93 W3        29.71S
WARRENSBURG    CLEAR     50  50 100 SW3       29.70S
OSAGE BEACH    CLEAR     51  50  96 CALM      29.70S

$$
MOZ051-052-059>065-250600-
...EAST CENTRAL MISSOURI...

CITY           SKY/WX    TMP DP  RH WIND       PRES   REMARKS
ST LOUIS INTL  CLEAR     59  51  75 NW7       29.62S
SPIRIT OF STL  CLEAR     54  51  90 W7        29.63R
ST CHARLES     CLEAR     57  53  86 NW7       29.62R

$$
MOZ072>076-082>087-097>100-106>115-250600-
...SOUTH CENTRAL AND SOUTHEAST MISSOURI...

CITY           SKY/WX    TMP DP  RH WIND       PRES   REMARKS
CAPE GIRARDEAU CLEAR     53  49  86 W6        29.61R
FARMINGTON     CLEAR     54  48  80 NW8       29.64S
POPLAR BLUFF   CLEAR     54  49  83 W6        29.64S
WEST PLAINS    CLEAR     51  48  89 NW5       29.70R

$$




USA.gov is the U.S. government's official web portal to all federal, state and local government web resources and services.